"startDT [UTC]","vpos","CH4 [ppm]","stdev(CH4) [ppm]","CO2 [ppm]","stdev(CO2) [ppm]","H2O [ppm]","stdev(H2O)","p_LGR [torr]","T_LGR [C]","mt1_LGR [us]","mt2_LGR [us]","T_ECpre [C]","T_EC1 [C]","T_EC2 [C]","p_inlet [hPa]","p_in [hPa]","p_out [hPa]","T_inlet [C]","RH_inlet [%]","dwpt_inlet [C]","T_vent [C]","RH_vent [%]","dwpt_vent [C]","flow_vent [l min-1]","flow_inlet [l min-1]","dwpt_sample [C]","T_room [C]"
2012-11-20 00:00:00,0.0,1.9100,0.0011,401.93,0.24,-0.2,4.0,138.10,28.94,24.65,36.39,0.04,-272.75,-272.75,-41,559,-931,23.2,1.6,-31.3,23.3,1.6,-30.9,5.73,2.42,-29.4,28.3
2012-11-20 00:01:00,0.0,1.9106,0.0009,401.96,0.26,-0.1,3.3,138.10,28.94,24.65,36.40,0.04,-272.75,-272.75,-41,559,-931,23.2,1.6,-31.2,23.3,1.6,-31.0,5.73,2.40,-29.4,28.3
2012-11-20 00:02:00,0.0,1.9102,0.0011,401.90,0.22,2.8,12.5,138.10,28.94,24.65,36.39,0.04,-272.75,-272.75,-41,559,-931,23.2,1.6,-31.2,23.3,1.6,-30.9,5.73,2.39,-29.4,28.2
2012-11-20 00:03:00,0.0,1.9093,0.0010,401.84,0.25,0.7,7.3,138.10,28.94,24.65,36.40,0.04,-272.75,-272.75,-41,559,-930,23.2,1.6,-31.2,23.3,1.6,-30.9,5.73,2.39,-29.4,28.2
2012-11-20 00:04:00,0.0,1.9095,0.0010,401.93,0.26,1.9,8.8,138.10,28.93,24.65,36.39,0.04,-272.75,-272.75,-41,559,-930,23.2,1.6,-31.2,23.3,1.6,-30.9,5.73,2.38,-29.4,28.2
2012-11-20 00:05:00,0.0,1.9097,0.0010,401.95,0.28,1.3,7.3,138.10,28.93,24.65,36.39,0.04,-272.75,-272.75,-41,559,-930,23.2,1.6,-31.2,23.3,1.6,-31.0,5.73,2.38,-29.4,28.2
2012-11-20 00:06:00,0.0,1.9101,0.0010,401.87,0.25,1.8,8.2,138.10,28.93,24.65,36.40,0.04,-272.75,-272.75,-41,559,-930,23.2,1.6,-31.2,23.3,1.6,-30.9,5.73,2.39,-29.4,28.2
2012-11-20 00:07:00,0.0,1.9104,0.0011,402.02,0.25,1.6,9.6,138.10,28.93,24.65,36.39,0.04,-272.75,-272.75,-41,559,-930,23.2,1.6,-31.2,23.3,1.6,-30.9,5.73,2.40,-29.4,28.3
2012-11-20 00:08:00,0.0,1.9102,0.0011,402.04,0.24,1.3,8.3,138.10,28.93,24.65,36.39,0.04,-272.75,-272.75,-41,559,-931,23.2,1.6,-31.2,23.3,1.6,-31.0,5.73,2.41,-29.4,28.2
2012-11-20 00:09:00,0.0,1.9097,0.0010,401.94,0.27,0.1,4.2,138.10,28.93,24.65,36.39,0.04,-272.75,-272.75,-41,559,-931,23.2,1.6,-31.2,23.3,1.6,-30.9,5.73,2.42,-29.4,28.2
2012-11-20 00:10:00,0.0,1.9097,0.0009,402.02,0.28,1.0,7.0,138.10,28.93,24.65,36.39,0.04,-272.75,-272.75,-41,559,-931,23.2,1.6,-31.1,23.3,1.6,-31.0,5.73,2.43,-29.4,28.2
2012-11-20 00:11:00,0.0,1.9098,0.0010,401.87,0.32,1.0,6.6,138.10,28.92,24.65,36.40,0.04,-272.75,-272.75,-41,559,-931,23.2,1.6,-31.0,23.3,1.6,-30.9,5.73,2.42,-29.4,28.2
2012-11-20 00:12:00,0.0,1.9093,0.0009,401.89,0.22,0.3,6.6,138.10,28.92,24.65,36.39,0.04,-272.75,-272.75,-41,559,-931,23.2,1.6,-31.0,23.3,1.6,-30.9,5.73,2.40,-29.4,28.2
2012-11-20 00:13:00,0.0,1.9097,0.0009,401.99,0.27,0.7,6.6,138.10,28.92,24.65,36.39,0.04,-272.75,-272.75,-41,559,-931,23.2,1.6,-31.0,23.3,1.6,-30.9,5.73,2.39,-29.4,28.2
2012-11-20 00:14:00,0.0,1.9096,0.0010,402.02,0.23,2.1,8.1,138.10,28.92,24.65,36.39,0.04,-272.75,-272.75,-41,559,-931,23.2,1.6,-31.0,23.3,1.6,-30.8,5.73,2.38,-29.4,28.3
2012-11-20 00:15:00,0.0,1.9096,0.0008,401.99,0.26,0.3,6.4,138.10,28.92,24.65,36.39,0.04,-272.75,-272.75,-41,559,-931,23.2,1.6,-31.0,23.3,1.6,-31.0,5.73,2.38,-29.4,28.3
2012-11-20 00:16:00,0.0,1.9102,0.0009,402.01,0.24,0.4,6.7,138.10,28.92,24.65,36.39,0.04,-272.74,-272.75,-41,559,-931,23.2,1.6,-31.0,23.3,1.6,-31.0,5.73,2.38,-29.0,28.2
2012-11-20 00:17:00,0.0,1.9106,0.0010,401.94,0.22,0.8,8.0,138.10,28.92,24.64,36.40,0.04,-272.75,-272.75,-41,559,-931,23.2,1.6,-31.0,23.3,1.6,-30.9,5.73,2.39,-29.0,28.2
2012-11-20 00:18:00,0.0,1.9102,0.0009,401.96,0.22,0.7,7.1,138.10,28.92,24.65,36.39,0.04,-272.75,-272.75,-41,559,-931,23.2,1.6,-31.0,23.3,1.6,-30.8,5.73,2.40,-29.0,28.2
2012-11-20 00:19:00,0.0,1.9104,0.0010,402.11,0.22,-0.3,4.0,138.10,28.92,24.65,36.38,0.04,-272.75,-272.75,-41,559,-931,23.2,1.6,-31.0,23.3,1.6,-30.8,5.73,2.42,-29.0,28.2
2012-11-20 00:20:00,0.0,1.9101,0.0009,401.90,0.24,2.4,10.8,138.10,28.92,24.65,36.40,0.04,-272.75,-272.75,-41,559,-930,23.2,1.6,-31.0,23.3,1.6,-30.8,5.73,2.42,-29.0,28.2
2012-11-20 00:21:00,0.0,1.9102,0.0010,401.93,0.23,0.4,5.7,138.10,28.92,24.65,36.39,0.04,-272.75,-272.75,-41,559,-930,23.2,1.6,-30.9,23.3,1.7,-30.7,5.73,2.43,-29.1,28.2
2012-11-20 00:22:00,0.0,1.9101,0.0010,402.03,0.28,0.3,5.7,138.10,28.92,24.65,36.39,0.04,-272.75,-272.75,-41,559,-930,23.2,1.7,-30.7,23.3,1.7,-30.5,5.73,2.42,-29.1,28.2
2012-11-20 00:23:00,0.0,1.9101,0.0010,401.95,0.28,0.2,4.0,138.10,28.91,24.65,36.39,0.04,-272.75,-272.75,-41,559,-930,23.2,1.7,-30.6,23.3,1.7,-30.5,5.73,2.40,-29.1,28.2
2012-11-20 00:24:00,0.0,1.9100,0.0009,401.94,0.22,1.9,9.0,138.10,28.91,24.65,36.39,0.04,-272.75,-272.75,-41,559,-930,23.2,1.7,-30.5,23.3,1.7,-30.3,5.73,2.38,-29.1,28.2
2012-11-20 00:25:00,0.0,1.9100,0.0009,401.99,0.28,0.1,5.5,138.10,28.91,24.65,36.39,0.04,-272.75,-272.75,-41,559,-931,23.1,1.7,-30.4,23.3,1.7,-30.3,5.73,2.38,-29.1,28.2
2012-11-20 00:26:00,0.0,1.9103,0.0009,401.82,0.26,0.6,8.0,138.10,28.91,24.65,36.40,0.04,-272.75,-272.75,-41,559,-931,23.1,1.7,-30.4,23.3,1.7,-30.2,5.73,2.38,-29.1,28.2
2012-11-20 00:27:00,0.0,1.9100,0.0010,401.92,0.23,1.0,6.4,138.10,28.90,24.65,36.39,0.04,-272.75,-272.75,-41,559,-931,23.1,1.7,-30.4,23.3,1.7,-30.3,5.73,2.38,-29.1,28.2
2012-11-20 00:28:00,0.0,1.9098,0.0010,401.91,0.27,-0.3,4.6,138.10,28.90,24.65,36.39,0.04,-272.75,-272.75,-41,559,-931,23.1,1.7,-30.6,23.3,1.7,-30.3,5.73,2.40,-29.1,28.2
2012-11-20 00:29:00,0.0,1.9101,0.0009,401.99,0.22,0.2,4.1,138.10,28.90,24.65,36.39,0.04,-272.75,-272.75,-41,559,-931,23.1,1.7,-30.6,23.3,1.7,-30.3,5.73,2.41,-29.1,28.2
2012-11-20 00:30:00,0.0,1.9097,0.0010,401.88,0.25,1.2,7.3,138.10,28.90,24.65,36.39,0.04,-272.75,-272.75,-41,559,-931,23.1,1.7,-30.5,23.3,1.7,-30.3,5.73,2.43,-29.1,28.2
2012-11-20 00:31:00,0.0,1.9099,0.0011,401.94,0.24,0.5,5.5,138.10,28.90,24.65,36.39,0.04,-272.75,-272.75,-41,559,-931,23.1,1.7,-30.5,23.3,1.7,-30.3,5.73,2.43,-29.1,28.2
2012-11-20 00:32:00,0.0,1.9098,0.0009,401.93,0.25,-0.5,3.1,138.10,28.90,24.65,36.39,0.04,-272.75,-272.75,-41,559,-930,23.1,1.7,-30.4,23.3,1.7,-30.3,5.73,2.42,-29.1,28.2
2012-11-20 00:33:00,0.0,1.9097,0.0008,401.93,0.24,0.7,6.1,138.10,28.90,24.65,36.39,0.04,-272.75,-272.75,-41,559,-930,23.1,1.7,-30.3,23.3,1.7,-30.3,5.73,2.41,-29.1,28.2
2012-11-20 00:34:00,0.0,1.9101,0.0010,401.93,0.24,1.2,7.8,138.10,28.90,24.65,36.40,0.04,-272.75,-272.75,-41,559,-930,23.1,1.7,-30.4,23.3,1.8,-30.1,5.73,2.39,-29.2,28.2
2012-11-20 00:35:00,0.0,1.9091,0.0009,401.94,0.24,0.6,4.9,138.10,28.90,24.65,36.39,0.04,-272.75,-272.75,-41,559,-930,23.1,1.7,-30.4,23.3,1.7,-30.1,5.73,2.38,-29.2,28.2
2012-11-20 00:36:00,0.0,1.9090,0.0009,401.96,0.27,0.9,6.8,138.10,28.89,24.65,36.39,0.04,-272.75,-272.75,-41,559,-931,23.1,1.7,-30.3,23.3,1.8,-30.1,5.73,2.38,-29.1,28.1
2012-11-20 00:37:00,0.0,1.9093,0.0009,401.95,0.27,0.9,6.7,138.10,28.89,24.65,36.39,0.04,-272.75,-272.75,-41,559,-931,23.1,1.7,-30.4,23.3,1.8,-30.1,5.73,2.38,-29.1,28.2
2012-11-20 00:38:00,0.0,1.9097,0.0010,401.90,0.20,1.9,8.5,138.10,28.89,24.65,36.39,0.04,-272.75,-272.75,-41,559,-931,23.1,1.7,-30.5,23.3,1.7,-30.3,5.73,2.39,-29.2,28.2
2012-11-20 00:39:00,0.0,1.9094,0.0010,401.91,0.23,2.9,9.5,138.10,28.89,24.65,36.39,0.04,-272.75,-272.75,-41,559,-931,23.1,1.7,-30.5,23.3,1.7,-30.3,5.73,2.41,-29.2,28.2
2012-11-20 00:40:00,0.0,1.9095,0.0010,401.79,0.22,1.6,9.6,138.10,28.89,24.65,36.40,0.04,-272.75,-272.75,-41,559,-931,23.1,1.7,-30.5,23.3,1.7,-30.3,5.73,2.42,-29.2,28.2
2012-11-20 00:41:00,0.0,1.9093,0.0012,401.86,0.23,2.1,7.8,138.10,28.89,24.65,36.39,0.04,-272.75,-272.75,-41,559,-931,23.1,1.7,-30.5,23.3,1.7,-30.5,5.73,2.42,-29.2,28.2
2012-11-20 00:42:00,0.0,1.9098,0.0010,401.82,0.25,-0.1,4.0,138.10,28.89,24.65,36.40,0.04,-272.75,-272.75,-41,559,-931,23.1,1.7,-30.7,23.3,1.7,-30.4,5.73,2.43,-29.2,28.2
2012-11-20 00:43:00,0.0,1.9110,0.0011,401.91,0.25,-0.3,3.6,138.10,28.88,24.65,36.40,0.04,-272.75,-272.75,-41,559,-931,23.1,1.7,-30.8,23.3,1.7,-30.6,5.73,2.41,-29.2,28.2
2012-11-20 00:44:00,0.0,1.9112,0.0008,401.99,0.25,-0.3,3.2,138.10,28.88,24.65,36.39,0.04,-272.75,-272.75,-41,559,-931,23.1,1.6,-31.0,23.3,1.7,-30.7,5.73,2.40,-29.2,28.2
2012-11-20 00:45:00,0.0,1.9104,0.0007,401.89,0.27,0.4,6.0,138.10,28.88,24.65,36.40,0.04,-272.75,-272.75,-41,559,-931,23.1,1.6,-31.1,23.3,1.6,-30.9,5.73,2.39,-29.2,28.2
2012-11-20 00:46:00,0.0,1.9108,0.0009,401.94,0.21,0.3,6.5,138.10,28.88,24.65,36.39,0.04,-272.75,-272.75,-41,559,-931,23.1,1.6,-31.3,23.2,1.6,-30.9,5.73,2.37,-29.2,28.2
2012-11-20 00:47:00,0.0,1.9106,0.0011,401.96,0.22,2.9,11.0,138.10,28.88,24.64,36.39,0.04,-272.75,-272.75,-41,559,-931,23.1,1.6,-31.2,23.3,1.6,-31.0,5.73,2.38,-29.2,28.2
2012-11-20 00:48:00,0.0,1.9099,0.0010,401.92,0.26,0.7,6.3,138.10,28.88,24.65,36.39,0.04,-272.75,-272.75,-41,559,-931,23.1,1.6,-31.1,23.2,1.6,-31.0,5.73,2.39,-29.2,28.2
2012-11-20 00:49:00,0.0,1.9108,0.0012,401.94,0.25,2.9,12.6,138.10,28.87,24.65,36.39,0.04,-272.75,-272.75,-41,559,-931,23.1,1.6,-31.0,23.2,1.6,-30.9,5.73,2.40,-29.2,28.2
2012-11-20 00:50:00,0.0,1.9106,0.0012,401.96,0.22,0.7,4.6,138.10,28.87,24.65,36.39,0.04,-272.75,-272.75,-41,559,-931,23.1,1.6,-31.0,23.3,1.6,-30.9,5.73,2.41,-29.2,28.2
2012-11-20 00:51:00,0.0,1.9117,0.0011,401.92,0.23,0.8,8.8,138.10,28.87,24.64,36.40,0.04,-272.75,-272.75,-41,559,-931,23.1,1.6,-31.1,23.3,1.6,-31.0,5.73,2.42,-29.2,28.2
2012-11-20 00:52:00,0.0,1.9124,0.0009,402.01,0.28,0.7,8.1,138.10,28.87,24.65,36.39,0.04,-272.75,-272.75,-41,559,-931,23.1,1.6,-31.2,23.2,1.6,-31.0,5.73,2.42,-29.2,28.2
2012-11-20 00:53:00,0.0,1.9118,0.0010,401.94,0.22,1.6,7.9,138.10,28.87,24.65,36.39,0.04,-272.75,-272.75,-41,559,-931,23.1,1.6,-31.3,23.2,1.6,-31.1,5.73,2.43,-29.2,28.2
2012-11-20 00:54:00,0.0,1.9121,0.0009,402.02,0.25,0.7,5.3,138.10,28.87,24.65,36.39,0.04,-272.75,-272.75,-41,559,-931,23.1,1.5,-31.5,23.2,1.6,-31.3,5.73,2.41,-29.2,28.1
2012-11-20 00:55:00,0.0,1.9117,0.0009,402.00,0.29,1.0,7.4,138.10,28.87,24.65,36.39,0.04,-272.75,-272.75,-41,559,-931,23.1,1.5,-31.8,23.2,1.5,-31.5,5.73,2.40,-29.2,28.1
2012-11-20 00:56:00,0.0,1.9116,0.0009,402.06,0.22,1.3,8.1,138.10,28.87,24.65,36.39,0.04,-272.75,-272.75,-41,559,-931,23.1,1.5,-31.9,23.2,1.5,-31.7,5.73,2.38,-29.2,28.1
2012-11-20 00:57:00,0.0,1.9114,0.0010,401.97,0.25,1.4,7.6,138.10,28.87,24.65,36.39,0.04,-272.74,-272.75,-41,559,-931,23.1,1.5,-32.1,23.2,1.5,-31.9,5.73,2.38,-29.2,28.1
2012-11-20 00:58:00,0.0,1.9117,0.0011,402.04,0.26,0.4,4.2,138.10,28.87,24.64,36.39,0.04,-272.75,-272.75,-41,559,-930,23.1,1.5,-32.2,23.2,1.5,-32.1,5.73,2.37,-29.2,28.2
2012-11-20 00:59:00,0.0,1.9107,0.0009,401.97,0.31,0.7,6.7,138.10,28.86,24.65,36.39,0.04,-272.75,-272.75,-41,559,-930,23.1,1.5,-32.2,23.2,1.4,-32.1,5.73,2.39,-29.2,28.1
2012-11-20 01:00:00,0.0,1.9104,0.0009,401.96,0.26,0.4,5.4,138.10,28.86,24.65,36.39,0.04,-272.75,-272.75,-41,559,-930,23.1,1.5,-32.2,23.2,1.5,-32.0,5.73,2.40,-29.2,28.2
2012-11-20 01:01:00,0.0,1.9097,0.0008,402.01,0.28,0.9,5.6,138.10,28.86,24.65,36.39,0.04,-272.75,-272.75,-41,559,-931,23.1,1.5,-32.0,23.2,1.5,-31.8,5.73,2.42,-29.2,28.2
2012-11-20 01:02:00,0.0,1.9092,0.0010,401.91,0.22,1.8,8.9,138.10,28.86,24.65,36.40,0.04,-272.75,-272.75,-41,559,-931,23.1,1.5,-31.8,23.2,1.5,-31.6,5.73,2.42,-29.2,28.2
2012-11-20 01:03:00,0.0,1.9094,0.0010,401.91,0.27,1.4,7.8,138.10,28.86,24.65,36.39,0.04,-272.75,-272.75,-41,559,-931,23.1,1.5,-31.6,23.2,1.6,-31.3,5.73,2.42,-29.2,28.1
2012-11-20 01:04:00,0.0,1.9089,0.0010,402.01,0.24,0.3,4.6,138.10,28.86,24.65,36.39,0.04,-272.75,-272.75,-41,559,-931,23.1,1.6,-31.2,23.2,1.6,-31.1,5.73,2.42,-29.3,28.2
2012-11-20 01:05:00,0.0,1.9092,0.0009,402.11,0.29,2.1,7.7,138.10,28.86,24.65,36.39,0.04,-272.75,-272.75,-41,559,-931,23.1,1.6,-31.0,23.2,1.6,-30.8,5.73,2.41,-29.3,28.2
2012-11-20 01:06:00,0.0,1.9087,0.0010,401.93,0.32,-0.5,2.7,138.10,28.85,24.65,36.40,0.04,-272.75,-272.75,-41,559,-931,23.1,1.7,-30.6,23.2,1.7,-30.5,5.73,2.40,-29.2,28.1
2012-11-20 01:07:00,0.0,1.9096,0.0009,402.15,0.23,-0.3,3.6,138.10,28.85,24.64,36.38,0.04,-272.75,-272.75,-41,559,-931,23.1,1.7,-30.4,23.2,1.7,-30.3,5.73,2.39,-29.2,28.1
2012-11-20 01:08:00,0.0,1.9093,0.0010,402.05,0.27,-0.0,4.6,138.10,28.85,24.65,36.40,0.04,-272.75,-272.75,-41,559,-931,23.1,1.7,-30.6,23.2,1.7,-30.5,5.73,2.38,-29.2,28.2
2012-11-20 01:09:00,0.0,1.9088,0.0010,402.31,0.23,0.6,5.0,138.10,28.85,24.65,36.39,0.04,-272.75,-272.75,-41,559,-931,23.1,1.6,-31.0,23.2,1.7,-30.7,5.73,2.38,-29.3,28.2
2012-11-20 01:10:00,0.0,1.9091,0.0008,402.30,0.29,1.2,8.7,138.10,28.85,24.65,36.39,0.04,-272.75,-272.75,-41,559,-930,23.1,1.6,-31.1,23.2,1.6,-30.8,5.73,2.39,-29.3,28.2
2012-11-20 01:11:00,0.0,1.9093,0.0010,402.44,0.27,1.4,7.7,138.10,28.85,24.65,36.39,0.04,-272.75,-272.75,-41,559,-930,23.1,1.6,-31.1,23.2,1.6,-30.8,5.73,2.39,-29.3,28.2
2012-11-20 01:12:00,0.0,1.9097,0.0009,402.33,0.24,0.9,6.3,138.10,28.85,24.64,36.39,0.04,-272.75,-272.75,-41,559,-930,23.1,1.6,-31.1,23.2,1.6,-30.8,5.73,2.41,-29.3,28.2
2012-11-20 01:13:00,0.0,1.9093,0.0010,402.42,0.26,1.6,8.5,138.10,28.85,24.65,36.39,0.04,-272.75,-272.75,-41,559,-931,23.1,1.6,-31.0,23.2,1.6,-30.8,5.73,2.41,-29.3,28.2
2012-11-20 01:14:00,0.0,1.9090,0.0008,402.44,0.21,-0.1,3.1,138.10,28.85,24.65,36.40,0.04,-272.75,-272.75,-41,559,-931,23.1,1.6,-31.1,23.2,1.6,-30.8,5.73,2.43,-29.3,28.2
2012-11-20 01:15:00,0.0,1.9093,0.0010,402.42,0.26,1.1,7.5,138.10,28.85,24.65,36.39,0.04,-272.75,-272.75,-41,559,-931,23.1,1.6,-31.1,23.2,1.6,-30.8,5.73,2.42,-29.3,28.2
2012-11-20 01:16:00,0.0,1.9092,0.0009,402.48,0.28,-0.4,2.6,138.10,28.85,24.65,36.39,0.04,-272.75,-272.75,-41,559,-931,23.1,1.6,-31.0,23.2,1.6,-30.8,5.73,2.42,-29.3,28.2
2012-11-20 01:17:00,0.0,1.9089,0.0009,402.33,0.23,0.4,5.3,138.10,28.85,24.65,36.39,0.04,-272.75,-272.75,-41,559,-931,23.1,1.7,-30.8,23.2,1.7,-30.6,5.73,2.41,-29.3,28.2
2012-11-20 01:18:00,0.0,1.9093,0.0012,402.25,0.26,-0.4,2.3,138.10,28.84,24.65,36.39,0.04,-272.75,-272.75,-41,559,-931,23.1,1.7,-30.6,23.2,1.7,-30.4,5.73,2.39,-29.3,28.2
2012-11-20 01:19:00,0.0,1.9094,0.0009,402.20,0.27,-0.0,3.8,138.10,28.84,24.64,36.39,0.04,-272.75,-272.75,-41,559,-931,23.1,1.7,-30.4,23.2,1.7,-30.2,5.73,2.38,-29.3,28.2
2012-11-20 01:20:00,0.0,1.9088,0.0011,402.10,0.23,2.3,10.7,138.10,28.84,24.65,36.39,0.04,-272.75,-272.75,-41,559,-931,23.1,1.8,-30.2,23.2,1.8,-30.0,5.73,2.38,-29.3,28.1
2012-11-20 01:21:00,0.0,1.9090,0.0010,402.04,0.29,-0.4,4.3,138.10,28.84,24.65,36.40,0.04,-272.75,-272.75,-41,559,-930,23.1,1.8,-30.1,23.2,1.8,-29.9,5.73,2.38,-29.3,28.1
2012-11-20 01:22:00,0.0,1.9094,0.0008,402.42,0.27,1.0,7.4,138.10,28.84,24.65,36.39,0.04,-272.75,-272.75,-41,559,-930,23.1,1.8,-30.1,23.2,1.8,-29.8,5.73,2.39,-29.3,28.1
2012-11-20 01:23:00,0.0,1.9095,0.0008,402.55,0.30,0.6,8.1,138.10,28.84,24.65,36.40,0.04,-272.75,-272.75,-41,559,-930,23.1,1.8,-30.1,23.2,1.8,-29.8,5.73,2.40,-29.3,28.1
2012-11-20 01:24:00,0.0,1.9103,0.0010,402.44,0.26,0.5,4.2,138.10,28.84,24.65,36.39,0.04,-272.75,-272.75,-41,559,-931,23.1,1.7,-30.3,23.2,1.8,-30.0,5.73,2.42,-29.3,28.1
2012-11-20 01:25:00,0.0,1.9109,0.0010,402.26,0.23,0.3,6.1,138.10,28.83,24.65,36.40,0.04,-272.75,-272.75,-41,559,-931,23.1,1.7,-30.4,23.2,1.7,-30.2,5.73,2.43,-29.3,28.1
2012-11-20 01:26:00,0.0,1.9109,0.0009,402.07,0.25,0.4,5.6,138.10,28.83,24.65,36.40,0.04,-272.75,-272.75,-41,559,-931,23.1,1.7,-30.7,23.2,1.7,-30.5,5.73,2.42,-29.3,28.1
2012-11-20 01:27:00,0.0,1.9110,0.0011,402.09,0.24,-0.4,2.6,138.10,28.83,24.65,36.40,0.04,-272.75,-272.75,-41,559,-931,23.1,1.6,-31.0,23.2,1.7,-30.7,5.73,2.42,-29.3,28.2
2012-11-20 01:28:00,0.0,1.9106,0.0009,402.10,0.27,0.3,5.2,138.10,28.83,24.65,36.40,0.04,-272.75,-272.75,-41,559,-931,23.1,1.6,-31.1,23.2,1.6,-30.9,5.73,2.41,-29.4,28.1
2012-11-20 01:29:00,0.0,1.9104,0.0011,402.24,0.26,-1.0,0.0,138.10,28.83,24.65,36.38,0.04,-272.75,-272.75,-41,559,-931,23.1,1.6,-31.3,23.2,1.6,-31.0,5.73,2.40,-29.4,28.1
2012-11-20 01:30:00,0.0,1.9105,0.0009,401.98,0.24,-0.3,5.7,138.10,28.83,24.65,36.40,0.04,-272.75,-272.75,-41,559,-930,23.1,1.6,-31.4,23.2,1.6,-31.2,5.73,2.39,-29.4,28.1
2012-11-20 01:31:00,0.0,1.9105,0.0009,402.12,0.20,0.3,6.6,138.10,28.83,24.65,36.39,0.04,-272.75,-272.75,-41,559,-930,23.1,1.6,-31.4,23.2,1.6,-31.2,5.73,2.38,-29.4,28.1
2012-11-20 01:32:00,0.0,1.9106,0.0012,402.01,0.22,-0.0,4.0,138.10,28.83,24.65,36.40,0.04,-272.75,-272.75,-41,559,-930,23.1,1.6,-31.4,23.2,1.6,-31.2,5.73,2.38,-29.4,28.1
2012-11-20 01:33:00,0.0,1.9114,0.0010,402.08,0.21,0.6,5.9,138.10,28.83,24.64,36.39,0.04,-272.75,-272.75,-41,559,-931,23.0,1.6,-31.5,23.2,1.6,-31.1,5.73,2.39,-29.4,28.1
2012-11-20 01:34:00,0.0,1.9109,0.0007,402.06,0.27,0.2,3.6,138.10,28.83,24.65,36.40,0.04,-272.75,-272.75,-41,559,-931,23.1,1.6,-31.4,23.2,1.6,-31.2,5.73,2.40,-29.4,28.1
2012-11-20 01:35:00,0.0,1.9103,0.0009,402.11,0.23,0.5,6.2,138.10,28.83,24.65,36.39,0.04,-272.75,-272.75,-41,559,-931,23.1,1.6,-31.3,23.2,1.6,-31.0,5.73,2.41,-29.4,28.1
2012-11-20 01:36:00,0.0,1.9097,0.0007,402.17,0.24,0.2,5.1,138.10,28.82,24.65,36.39,0.04,-272.75,-272.75,-41,559,-931,23.1,1.6,-31.2,23.2,1.6,-31.0,5.73,2.42,-29.3,28.1
2012-11-20 01:37:00,0.0,1.9101,0.0009,402.11,0.23,0.0,4.3,138.10,28.82,24.65,36.39,0.04,-272.75,-272.74,-41,559,-931,23.1,1.6,-31.3,23.2,1.6,-30.9,5.73,2.43,-29.4,28.1
2012-11-20 01:38:00,0.0,1.9101,0.0010,402.16,0.21,0.3,4.7,138.10,28.82,24.65,36.39,0.04,-272.75,-272.75,-41,559,-930,23.1,1.6,-31.1,23.2,1.6,-30.8,5.73,2.42,-29.4,28.1
2012-11-20 01:39:00,0.0,1.9110,0.0009,402.03,0.24,-0.8,0.9,138.10,28.82,24.64,36.40,0.04,-272.75,-272.76,-41,559,-930,23.1,1.6,-31.1,23.2,1.6,-30.9,5.73,2.42,-29.4,28.1
2012-11-20 01:40:00,0.0,1.9109,0.0009,402.11,0.30,1.3,7.2,138.10,28.82,24.65,36.40,0.04,-272.75,-272.75,-41,559,-930,23.1,1.6,-31.3,23.2,1.6,-30.9,5.73,2.39,-29.4,28.1
2012-11-20 01:41:00,0.0,1.9110,0.0010,402.10,0.24,0.4,5.4,138.10,28.82,24.65,36.40,0.04,-272.75,-272.75,-41,559,-930,23.0,1.6,-31.3,23.2,1.6,-31.0,5.73,2.39,-29.4,28.1
2012-11-20 01:42:00,0.0,1.9107,0.0010,402.23,0.30,0.1,3.2,138.10,28.82,24.65,36.39,0.04,-272.75,-272.75,-41,559,-930,23.1,1.6,-31.3,23.2,1.6,-31.0,5.73,2.38,-29.4,28.1
2012-11-20 01:43:00,0.0,1.9099,0.0012,402.24,0.23,1.3,7.2,138.10,28.82,24.65,36.40,0.04,-272.75,-272.75,-41,559,-931,23.1,1.6,-31.3,23.2,1.6,-30.9,5.73,2.38,-29.4,28.1
2012-11-20 01:44:00,0.0,1.9097,0.0010,402.30,0.24,-0.4,3.7,138.10,28.82,24.65,36.39,0.04,-272.75,-272.75,-41,559,-931,23.1,1.6,-31.2,23.2,1.6,-31.0,5.73,2.39,-29.4,28.1
2012-11-20 01:45:00,0.0,1.9095,0.0009,402.39,0.23,1.6,8.9,138.10,28.82,24.65,36.39,0.04,-272.75,-272.75,-41,559,-931,23.1,1.6,-31.1,23.2,1.6,-30.9,5.73,2.40,-29.4,28.1
2012-11-20 01:46:00,0.0,1.9093,0.0008,402.43,0.23,0.7,6.9,138.10,28.81,24.65,36.39,0.04,-272.75,-272.75,-41,559,-931,23.1,1.6,-31.1,23.2,1.6,-30.8,5.73,2.42,-29.4,28.1
2012-11-20 01:47:00,0.0,1.9099,0.0010,402.38,0.24,0.7,5.3,138.10,28.81,24.64,36.40,0.04,-272.75,-272.75,-41,559,-930,23.1,1.6,-31.1,23.2,1.6,-30.8,5.73,2.43,-29.4,28.1
2012-11-20 01:48:00,0.0,1.9092,0.0009,402.43,0.22,0.7,5.1,138.10,28.81,24.65,36.39,0.04,-272.75,-272.75,-41,559,-930,23.1,1.6,-31.2,23.2,1.6,-30.9,5.73,2.43,-29.4,28.1
2012-11-20 01:49:00,0.0,1.9095,0.0009,402.47,0.24,0.8,6.6,138.10,28.81,24.65,36.39,0.04,-272.75,-272.75,-41,559,-930,23.1,1.6,-31.4,23.2,1.6,-31.1,5.73,2.42,-29.4,28.1
2012-11-20 01:50:00,0.0,1.9095,0.0010,402.40,0.20,1.6,8.8,138.10,28.81,24.65,36.39,0.04,-272.75,-272.75,-41,559,-930,23.1,1.5,-31.6,23.2,1.6,-31.3,5.73,2.41,-29.4,28.1
2012-11-20 01:51:00,0.0,1.9094,0.0011,402.41,0.27,0.8,7.0,138.10,28.81,24.65,36.40,0.04,-272.75,-272.75,-41,559,-931,23.0,1.5,-31.6,23.2,1.6,-31.3,5.73,2.38,-29.4,28.1
2012-11-20 01:52:00,0.0,1.9097,0.0008,402.42,0.22,0.6,6.0,138.10,28.81,24.65,36.39,0.04,-272.75,-272.75,-41,559,-931,23.0,1.6,-31.5,23.2,1.6,-31.2,5.73,2.38,-29.4,28.1
2012-11-20 01:53:00,0.0,1.9094,0.0009,402.39,0.22,0.2,4.4,138.10,28.81,24.65,36.39,0.04,-272.75,-272.75,-41,559,-931,23.0,1.6,-31.4,23.2,1.6,-31.1,5.73,2.38,-29.4,28.1
2012-11-20 01:54:00,0.0,1.9097,0.0010,402.33,0.23,2.0,8.9,138.10,28.81,24.65,36.40,0.04,-272.75,-272.75,-41,559,-931,23.0,1.6,-31.3,23.2,1.6,-31.0,5.73,2.38,-29.4,28.1
2012-11-20 01:55:00,0.0,1.9097,0.0009,402.70,0.25,-0.4,3.1,138.10,28.81,24.65,36.39,0.04,-272.75,-272.75,-41,559,-930,23.0,1.6,-31.2,23.2,1.6,-30.9,5.73,2.40,-29.4,28.1
2012-11-20 01:56:00,0.0,1.9097,0.0009,402.71,0.24,1.2,8.3,138.10,28.81,24.65,36.40,0.04,-272.75,-272.75,-41,559,-930,23.0,1.6,-31.0,23.2,1.7,-30.7,5.73,2.41,-29.4,28.1
2012-11-20 01:57:00,0.0,1.9096,0.0009,402.86,0.24,0.6,6.9,138.10,28.81,24.65,36.39,0.04,-272.75,-272.75,-41,559,-930,23.1,1.6,-30.9,23.2,1.7,-30.6,5.73,2.42,-29.4,28.1
2012-11-20 01:58:00,0.0,1.9096,0.0008,402.82,0.26,-0.7,1.4,138.10,28.81,24.65,36.40,0.04,-272.75,-272.75,-41,559,-930,23.0,1.6,-30.9,23.2,1.7,-30.6,5.73,2.43,-29.4,28.2
2012-11-20 01:59:00,0.0,1.9097,0.0011,402.86,0.24,0.8,7.4,138.10,28.80,24.65,36.40,0.04,-272.75,-272.75,-41,559,-931,23.1,1.6,-31.2,23.2,1.6,-30.8,5.73,2.42,-29.4,28.1
2012-11-20 02:00:00,0.0,1.9095,0.0010,402.88,0.28,4.0,15.3,138.10,28.80,24.65,36.39,0.04,-272.75,-272.75,-41,559,-931,23.1,1.6,-31.3,23.2,1.6,-30.8,5.73,2.41,-29.4,28.1
2012-11-20 02:01:00,0.0,1.9097,0.0008,402.75,0.26,-0.1,3.4,138.10,28.80,24.65,36.39,0.04,-272.75,-272.75,-41,559,-931,23.1,1.6,-31.1,23.2,1.6,-30.9,5.73,2.39,-29.4,28.1
2012-11-20 02:02:00,0.0,1.9103,0.0012,402.64,0.26,0.0,3.6,138.10,28.80,24.64,36.40,0.04,-272.75,-272.75,-41,559,-931,23.1,1.6,-31.1,23.2,1.6,-30.9,5.73,2.38,-29.4,28.1
2012-11-20 02:03:00,0.0,1.9103,0.0010,402.60,0.28,0.8,7.5,138.10,28.80,24.65,36.39,0.04,-272.75,-272.75,-41,559,-930,23.0,1.6,-31.1,23.2,1.7,-30.7,5.73,2.37,-29.4,28.1
2012-11-20 02:04:00,0.0,1.9107,0.0008,402.61,0.29,-0.4,4.0,138.10,28.80,24.65,36.39,0.04,-272.75,-272.75,-41,559,-930,23.1,1.6,-31.0,23.2,1.7,-30.7,5.73,2.38,-29.4,28.1
2012-11-20 02:05:00,0.0,1.9108,0.0010,402.71,0.27,0.6,5.6,138.10,28.80,24.65,36.39,0.04,-272.75,-272.75,-41,558,-930,23.1,1.6,-30.9,23.2,1.7,-30.7,5.73,2.39,-29.4,28.1
2012-11-20 02:06:00,0.0,1.9103,0.0009,402.67,0.26,-0.0,4.4,138.10,28.80,24.65,36.39,0.04,-272.75,-272.75,-41,559,-930,23.0,1.6,-30.9,23.2,1.7,-30.7,5.73,2.41,-29.4,28.1
2012-11-20 02:07:00,0.0,1.9106,0.0009,402.72,0.26,0.8,5.8,138.10,28.80,24.64,36.39,0.04,-272.75,-272.75,-41,559,-931,23.0,1.6,-30.9,23.2,1.7,-30.6,5.73,2.42,-29.4,28.1
2012-11-20 02:08:00,0.0,1.9107,0.0012,402.72,0.27,1.7,7.3,138.10,28.80,24.65,36.40,0.04,-272.74,-272.75,-41,559,-931,23.0,1.7,-30.9,23.2,1.7,-30.7,5.73,2.42,-29.4,28.1
2012-11-20 02:09:00,0.0,1.9110,0.0011,402.83,0.27,0.3,6.3,138.10,28.80,24.65,36.39,0.04,-272.75,-272.75,-41,559,-931,23.0,1.6,-30.9,23.2,1.7,-30.7,5.73,2.42,-29.4,28.1
2012-11-20 02:10:00,0.0,1.9106,0.0010,402.86,0.25,-0.9,0.6,138.10,28.80,24.65,36.38,0.04,-272.75,-272.75,-41,559,-931,23.0,1.6,-30.9,23.2,1.7,-30.6,5.73,2.42,-29.4,28.1
2012-11-20 02:11:00,0.0,1.9109,0.0009,402.83,0.20,-1.0,0.0,138.10,28.79,24.65,36.38,0.04,-272.75,-272.75,-41,558,-930,23.0,1.6,-30.9,23.2,1.7,-30.7,5.73,2.40,-29.4,28.1
2012-11-20 02:12:00,0.0,1.9128,0.0013,402.61,0.25,-0.1,4.6,138.10,28.79,24.64,36.39,0.04,-272.75,-272.75,-41,559,-930,23.0,1.6,-30.9,23.2,1.7,-30.7,5.73,2.39,-29.4,28.1
2012-11-20 02:13:00,0.0,1.9150,0.0022,402.54,0.25,1.1,8.3,138.10,28.79,24.64,36.39,0.04,-272.75,-272.75,-41,559,-930,23.0,1.6,-31.0,23.2,1.7,-30.7,5.73,2.38,-29.4,28.1
2012-11-20 02:14:00,0.0,1.9173,0.0014,402.50,0.29,-0.2,3.0,138.10,28.79,24.65,36.39,0.04,-272.75,-272.75,-41,558,-931,23.0,1.6,-31.2,23.2,1.6,-30.9,5.73,2.37,-29.4,28.1
2012-11-20 02:15:00,0.0,1.9156,0.0011,402.59,0.27,-0.8,1.8,138.10,28.79,24.65,36.39,0.04,-272.75,-272.75,-41,559,-931,23.0,1.6,-31.3,23.2,1.6,-30.9,5.73,2.38,-29.4,28.1
2012-11-20 02:16:00,0.0,1.9130,0.0011,402.50,0.24,0.4,6.3,138.10,28.79,24.65,36.39,0.04,-272.75,-272.75,-41,559,-931,23.1,1.6,-31.4,23.2,1.6,-31.0,5.73,2.39,-29.4,28.1
2012-11-20 02:17:00,0.0,1.9127,0.0009,402.43,0.27,-0.0,5.1,138.10,28.79,24.65,36.39,0.04,-272.75,-272.75,-41,559,-931,23.1,1.5,-31.5,23.2,1.6,-31.1,5.73,2.41,-29.4,28.1
2012-11-20 02:18:00,0.0,1.9133,0.0010,402.41,0.28,0.4,6.5,138.10,28.79,24.65,36.40,0.04,-272.75,-272.75,-41,559,-931,23.1,1.5,-31.6,23.2,1.6,-31.3,5.73,2.42,-29.4,28.1
2012-11-20 02:19:00,0.0,1.9132,0.0010,402.31,0.23,-0.1,3.5,138.10,28.79,24.65,36.39,0.04,-272.75,-272.75,-41,559,-930,23.0,1.5,-31.8,23.2,1.6,-31.4,5.73,2.43,-29.4,28.1